This is the latest recevied weather packets stored in our database for station/object WAYLND-WX. If no packets are shown the sender has not sent any weather packets the latest 1 day(s).
| Time | Temp. | Humidity | Pressure | Rain* | Wind** | Luminosity | Snow |
|---|---|---|---|---|---|---|---|
| 1778037343 | 6.67° C | 58% | 982.4 hPa | 0 mm | 1.34 m/s, 214° | - | - |
| 1778036483 | 7.22° C | 58% | 982.4 hPa | 0 mm | 1.34 m/s, 245° | - | - |
| 1778035543 | 7.22° C | 53% | 982.6 hPa | 0 mm | 1.34 m/s, 283° | - | - |
| 1778034661 | 7.78° C | 49% | 982.7 hPa | 0 mm | 1.34 m/s, 274° | - | - |
| 1778033742 | 7.78° C | 49% | 982.8 hPa | 0 mm | 1.79 m/s, 270° | - | - |
| 1778032867 | 8.33° C | 49% | 982.8 hPa | 0 mm | 1.34 m/s, 297° | - | - |
| 1778031942 | 8.33° C | 43% | 982.3 hPa | 0 mm | 0.89 m/s, 297° | - | - |
| 1778031064 | 8.33° C | 43% | 982.3 hPa | 0 mm | 1.34 m/s, 306° | - | - |
| 1778030142 | 7.78° C | 43% | 982.3 hPa | 0 mm | 1.79 m/s, 287° | - | - |
| 1778029270 | 8.33° C | 43% | 982.3 hPa | 0 mm | 1.79 m/s, 295° | - | - |
| 1778028341 | 8.89° C | 37% | 982.4 hPa | 0 mm | 1.79 m/s, 294° | - | - |
| 1778027457 | 9.44° C | 37% | 982.6 hPa | 0 mm | 1.79 m/s, 288° | - | - |
| 1778026542 | 10° C | 37% | 982.6 hPa | 0 mm | 2.68 m/s, 294° | - | - |
| 1778025676 | 10° C | 37% | 982.6 hPa | 0 mm | 3.13 m/s, 297° | - | - |
| 1778024742 | 10.56° C | 35% | 982.5 hPa | 0 mm | 3.58 m/s, 298° | - | - |
| 1778023859 | 10.56° C | 34% | 982.3 hPa | 0 mm | 3.58 m/s, 298° | - | - |
| 1778022943 | 11.11° C | 34% | 982.3 hPa | 0 mm | 4.02 m/s, 297° | - | - |
| 1778022070 | 11.11° C | 34% | 982.3 hPa | 0 mm | 4.47 m/s, 295° | - | - |
| 1778021143 | 11.11° C | 35% | 982.3 hPa | 0 mm | 4.47 m/s, 296° | - | - |
| 1778020262 | 11.11° C | 36% | 982.6 hPa | 0 mm | 4.92 m/s, 292° | - | - |
| 1778019342 | 11.67° C | 36% | 982.6 hPa | 0 mm | 4.92 m/s, 291° | - | - |
| 1778018473 | 11.67° C | 36% | 982.6 hPa | 0 mm | 5.36 m/s, 289° | - | - |
| 1778017542 | 11.67° C | 38% | 982.5 hPa | 0 mm | 5.81 m/s, 288° | - | - |
| 1778016662 | 11.67° C | 38% | 982.1 hPa | 0 mm | 5.81 m/s, 284° | - | - |
| 1778015742 | 11.67° C | 38% | 982.1 hPa | 0 mm | 5.81 m/s, 283° | - | - |
* Rain latest hour (hover to see other rain measurements)
** Current wind speed in m/s (hover to see current wind gust speed)